Location: Quedlinburg
(51.7921°N, 11.1414°E)
Time: 13:29:18
(UTC+02:00)

RS-15 - Pass Details

Date: 16 March 2026
Orbit: 1893 x 2152 km, 64.8° (Epoch: 22 April)

Event Time Altitude Azimuth Distance (km) Brightness Sun altitude
Rises 01:07:38 0° 289° (WNW) 5,312 10.4 -39.2°
Reaches altitude 10° 01:11:11 10° 296° (WNW) 4,336 9.9 -39.1°
Maximum altitude 01:21:42 44° 7° (N) 2,586 8.9 -38.6°
Drops below altitude 10° 01:32:41 10° 77° (ENE) 4,524 10.2 -38.0°
Sets 01:36:28 0° 84° (E) 5,559 10.7 -37.8°
